| time (UTC) | temp F | wind direction | speed MPH | gust MPH | rain 1hr in | rain 24hr in | rain mn in | humidity % | barometer mb |
| 20260507010422 | 59 | 211 | 2.0 | 4.0 | 0.00 | 0.12 | 0.12 | 81 | 1008.7 |
| 20260507005422 | 58 | 224 | 4.0 | 7.0 | 0.00 | 0.12 | 0.12 | 81 | 1008.7 |
| 20260507004420 | 58 | 220 | 4.0 | 7.0 | 0.00 | 0.12 | 0.12 | 82 | 1008.8 |
| 20260507003422 | 58 | 223 | 1.0 | 5.0 | 0.00 | 0.12 | 0.12 | 81 | 1008.6 |
| 20260507002421 | 58 | 222 | 2.0 | 3.0 | 0.00 | 0.12 | 0.12 | 81 | 1008.7 |
| 20260507001519 | 58 | 260 | 0.0 | 2.0 | 0.00 | 0.12 | 0.12 | 80 | 1008.6 |
| 20260507000520 | 58 | 214 | 2.0 | 4.0 | 0.00 | 0.12 | 0.12 | 80 | 1008.6 |
| 20260506235522 | 58 | 206 | 1.0 | 4.0 | 0.01 | 0.12 | 0.12 | 79 | 1008.3 |
| 20260506234620 | 58 | 225 | 1.0 | 3.0 | 0.02 | 0.12 | 0.12 | 78 | 1008.4 |
| 20260506233621 | 58 | 213 | 3.0 | 6.0 | 0.03 | 0.12 | 0.12 | 78 | 1008.3 |
| 20260506232621 | 58 | 205 | 1.0 | 3.0 | 0.03 | 0.12 | 0.12 | 78 | 1008.4 |
| 20260506231719 | 58 | 217 | 3.0 | 5.0 | 0.03 | 0.12 | 0.12 | 77 | 1008.3 |
| 20260506230719 | 58 | 222 | 1.0 | 2.0 | 0.03 | 0.12 | 0.12 | 77 | 1008.2 |
| 20260506225721 | 59 | 217 | 3.0 | 6.0 | 0.02 | 0.11 | 0.11 | 77 | 1008.3 |
| 20260506224721 | 59 | 215 | 5.0 | 10.0 | 0.02 | 0.10 | 0.10 | 75 | 1008.4 |
| 20260506223720 | 59 | 214 | 2.0 | 3.0 | 0.01 | 0.09 | 0.09 | 75 | 1008.5 |
| 20260506222722 | 59 | 202 | 1.0 | 3.0 | 0.01 | 0.09 | 0.09 | 74 | 1008.6 |
| 20260506221722 | 59 | 225 | 3.0 | 6.0 | 0.01 | 0.09 | 0.09 | 74 | 1008.5 |
| 20260506220820 | 59 | 217 | 2.0 | 4.0 | 0.01 | 0.09 | 0.09 | 74 | 1008.6 |
| 20260506214837 | 59 | 208 | 1.0 | 3.0 | 0.00 | 0.08 | 0.08 | 71 | 1008.8 |
| 20260506213921 | 59 | 219 | 4.0 | 7.0 | 0.00 | 0.08 | 0.08 | 71 | 1008.8 |
| 20260506212922 | 59 | 213 | 1.0 | 4.0 | 0.00 | 0.08 | 0.08 | 70 | 1009.0 |
| 20260506211922 | 59 | 223 | 3.0 | 6.0 | 0.01 | 0.08 | 0.08 | 70 | 1009.1 |
| 20260506211020 | 59 | 222 | 3.0 | 7.0 | 0.02 | 0.08 | 0.08 | 70 | 1009.0 |
| 20260506210021 | 59 | 199 | 2.0 | 3.0 | 0.02 | 0.08 | 0.08 | 69 | 1009.2 |
| 20260506204120 | 59 | 218 | 2.0 | 4.0 | 0.03 | 0.08 | 0.08 | 67 | 1009.3 |
| 20260506202123 | 59 | 222 | 6.0 | 10.0 | 0.03 | 0.07 | 0.07 | 65 | 1009.5 |
| 20260506201120 | 60 | 223 | 2.0 | 6.0 | 0.04 | 0.07 | 0.06 | 64 | 1009.5 |
| 20260506200120 | 60 | 214 | 2.0 | 5.0 | 0.04 | 0.06 | 0.06 | 64 | 1009.4 |
| 20260506195120 | 61 | 222 | 1.0 | 3.0 | 0.05 | 0.06 | 0.06 | 64 | 1009.5 |
| 20260506194219 | 61 | 211 | 1.0 | 4.0 | 0.04 | 0.05 | 0.05 | 62 | 1009.4 |
| 20260506193222 | 61 | 205 | 3.0 | 4.0 | 0.05 | 0.05 | 0.05 | 61 | 1009.4 |
| 20260506191321 | 62 | 223 | 4.0 | 8.0 | 0.03 | 0.03 | 0.03 | 61 | 1009.5 |
| 20260506190320 | 62 | 209 | 2.0 | 3.0 | 0.02 | 0.02 | 0.02 | 60 | 1009.4 |
| 20260506185419 | 63 | 210 | 2.0 | 6.0 | 0.02 | 0.02 | 0.01 | 59 | 1009.4 |
| 20260506184421 | 64 | 217 | 2.0 | 5.0 | 0.01 | 0.01 | 0.01 | 59 | 1009.5 |
| 20260506183421 | 65 | 225 | 3.0 | 5.0 | 0.00 | 0.00 | 0.00 | 59 | 1009.7 |
| 20260506181420 | 67 | 209 | 4.0 | 7.0 | 0.00 | 0.00 | 0.00 | 58 | 1009.6 |
| 20260506180519 | 69 | 220 | 4.0 | 9.0 | 0.00 | 0.00 | 0.00 | 58 | 1009.7 |
| 20260506175522 | 70 | 218 | 7.0 | 10.0 | 0.00 | 0.00 | 0.00 | 59 | 1009.8 |
| 20260506172622 | 72 | 226 | 5.0 | 10.0 | 0.00 | 0.00 | 0.00 | 61 | 1009.6 |
| 20260506171620 | 72 | 214 | 2.0 | 5.0 | 0.00 | 0.00 | 0.00 | 60 | 1009.6 |
| 20260506170619 | 72 | 230 | 3.0 | 6.0 | 0.00 | 0.00 | 0.00 | 62 | 1009.6 |
| 20260506165622 | 72 | 224 | 4.0 | 7.0 | 0.00 | 0.00 | 0.00 | 61 | 1009.8 |
| 20260506164619 | 72 | 208 | 5.0 | 10.0 | 0.00 | 0.00 | 0.00 | 62 | 1009.8 |
| 20260506163621 | 71 | 203 | 1.0 | 2.0 | 0.00 | 0.00 | 0.00 | 63 | 1009.9 |
| 20260506162621 | 71 | 227 | 3.0 | 4.0 | 0.00 | 0.00 | 0.00 | 64 | 1010.2 |
| 20260506161620 | 70 | 217 | 4.0 | 10.0 | 0.00 | 0.00 | 0.00 | 64 | 1010.3 |
| 20260506160719 | 70 | 203 | 5.0 | 10.0 | 0.00 | 0.00 | 0.00 | 64 | 1010.5 |
| 20260506154818 | 70 | 218 | 3.0 | 4.0 | 0.00 | 0.00 | 0.00 | 66 | 1010.8 |
| 20260506153821 | 70 | 243 | 2.0 | 5.0 | 0.00 | 0.00 | 0.00 | 65 | 1011.1 |
| 20260506152919 | 70 | 217 | 5.0 | 9.0 | 0.00 | 0.00 | 0.00 | 66 | 1011.2 |
| 20260506151920 | 70 | 229 | 8.0 | 14.0 | 0.00 | 0.00 | 0.00 | 67 | 1011.2 |
| 20260506151836 | 70 | 215 | 9.0 | 14.0 | 0.00 | 0.00 | 0.00 | 66 | 1011.1 |
| 20260506145819 | 69 | 223 | 2.0 | 5.0 | 0.00 | 0.00 | 0.00 | 67 | 1011.4 |
| 20260506144820 | 68 | 214 | 5.0 | 10.0 | 0.00 | 0.00 | 0.00 | 68 | 1011.6 |
| 20260506143820 | 68 | 243 | 2.0 | 4.0 | 0.00 | 0.00 | 0.00 | 68 | 1011.7 |
| 20260506142821 | 67 | 246 | 5.0 | 11.0 | 0.00 | 0.00 | 0.00 | 68 | 1011.6 |
| 20260506141820 | 67 | 219 | 3.0 | 7.0 | 0.00 | 0.00 | 0.00 | 68 | 1011.5 |
| 20260506140821 | 67 | 215 | 5.0 | 8.0 | 0.00 | 0.00 | 0.00 | 69 | 1011.6 |
| 20260506134922 | 66 | 214 | 5.0 | 9.0 | 0.00 | 0.00 | 0.00 | 69 | 1011.6 |
| 20260506132920 | 66 | 282 | 5.0 | 7.0 | 0.00 | 0.00 | 0.00 | 70 | 1011.8 |
| 20260506131920 | 65 | 209 | 5.0 | 8.0 | 0.00 | 0.00 | 0.00 | 70 | 1012.1 |
| 20260506130920 | 64 | 233 | 2.0 | 5.0 | 0.00 | 0.00 | 0.00 | 69 | 1012.3 |
| 20260506130018 | 64 | 221 | 4.0 | 10.0 | 0.00 | 0.00 | 0.00 | 70 | 1012.2 |
| 20260506124022 | 64 | 236 | 4.0 | 6.0 | 0.00 | 0.00 | 0.00 | 69 | 1012.4 |
| 20260506123020 | 63 | 212 | 5.0 | 7.0 | 0.00 | 0.00 | 0.00 | 70 | 1012.0 |
| 20260506122021 | 63 | 223 | 3.0 | 6.0 | 0.00 | 0.00 | 0.00 | 69 | 1012.3 |
| 20260506121021 | 63 | 238 | 3.0 | 7.0 | 0.00 | 0.00 | 0.00 | 69 | 1012.4 |
| 20260506120020 | 63 | 212 | 4.0 | 10.0 | 0.00 | 0.00 | 0.00 | 69 | 1012.1 |
| 20260506115021 | 62 | 230 | 3.0 | 11.0 | 0.00 | 0.00 | 0.00 | 68 | 1012.3 |
| 20260506114022 | 61 | 216 | 4.0 | 7.0 | 0.00 | 0.00 | 0.00 | 68 | 1012.4 |
| 20260506113020 | 61 | 202 | 2.0 | 4.0 | 0.00 | 0.00 | 0.00 | 67 | 1012.5 |
| 20260506112119 | 61 | 218 | 3.0 | 5.0 | 0.00 | 0.00 | 0.00 | 68 | 1012.8 |
| 20260506111119 | 60 | 223 | 2.0 | 7.0 | 0.00 | 0.00 | 0.00 | 66 | 1012.7 |
| 20260506110120 | 60 | 215 | 3.0 | 5.0 | 0.00 | 0.00 | 0.00 | 67 | 1012.4 |
| 20260506105119 | 60 | 245 | 3.0 | 5.0 | 0.00 | 0.00 | 0.00 | 66 | 1012.6 |
| 20260506104119 | 59 | 219 | 1.0 | 4.0 | 0.00 | 0.00 | 0.00 | 66 | 1012.6 |
| 20260506103120 | 59 | 214 | 2.0 | 4.0 | 0.00 | 0.00 | 0.00 | 66 | 1012.5 |
| 20260506100221 | 59 | 215 | 2.0 | 4.0 | 0.00 | 0.00 | 0.00 | 63 | 1012.5 |
| 20260506094221 | 59 | 222 | 2.0 | 4.0 | 0.00 | 0.00 | 0.00 | 62 | 1012.4 |
| 20260506093219 | 59 | 217 | 3.0 | 7.0 | 0.00 | 0.00 | 0.00 | 63 | 1012.3 |
| 20260506092221 | 59 | 218 | 3.0 | 6.0 | 0.00 | 0.00 | 0.00 | 61 | 1012.4 |
| 20260506091318 | 59 | 209 | 3.0 | 7.0 | 0.00 | 0.00 | 0.00 | 62 | 1012.5 |
| 20260506090320 | 59 | 225 | 1.0 | 3.0 | 0.00 | 0.00 | 0.00 | 61 | 1012.4 |
| 20260506085321 | 59 | 206 | 0.0 | 3.0 | 0.00 | 0.00 | 0.00 | 61 | 1012.3 |
| 20260506084418 | 59 | 204 | 1.0 | 2.0 | 0.00 | 0.00 | 0.00 | 60 | 1012.6 |
| 20260506083419 | 60 | 223 | 2.0 | 4.0 | 0.00 | 0.00 | 0.00 | 60 | 1012.5 |
| 20260506082422 | 60 | 233 | 5.0 | 10.0 | 0.00 | 0.00 | 0.00 | 60 | 1012.5 |
| 20260506081520 | 60 | 242 | 2.0 | 4.0 | 0.00 | 0.00 | 0.00 | 59 | 1012.5 |
| 20260506080535 | 60 | 216 | 4.0 | 7.0 | 0.00 | 0.00 | 0.00 | 58 | 1012.3 |
| 20260506072718 | 61 | 214 | 2.0 | 3.0 | 0.00 | 0.00 | 0.00 | 56 | 1012.4 |
| 20260506071720 | 61 | 221 | 3.0 | 6.0 | 0.00 | 0.00 | 0.00 | 56 | 1012.4 |
| 20260506070721 | 62 | 215 | 2.0 | 5.0 | 0.00 | 0.00 | 0.00 | 56 | 1012.2 |
| 20260506061919 | 63 | 208 | 4.0 | 9.0 | 0.00 | 0.00 | 0.00 | 53 | 1012.1 |
| 20260506060922 | 63 | 212 | 4.0 | 7.0 | 0.00 | 0.00 | 0.00 | 53 | 1012.0 |
| 20260506051021 | 63 | 223 | 3.0 | 4.0 | 0.00 | 0.00 | 0.00 | 51 | 1012.2 |
| 20260506045119 | 63 | 232 | 5.0 | 12.0 | 0.00 | 0.00 | 0.00 | 50 | 1012.3 |
| 20260506043120 | 63 | 222 | 5.0 | 13.0 | 0.00 | 0.00 | 0.00 | 50 | 1012.3 |
| 20260506042119 | 63 | 201 | 2.0 | 5.0 | 0.00 | 0.00 | 0.00 | 49 | 1012.4 |
| 20260506041122 | 63 | 216 | 3.0 | 5.0 | 0.00 | 0.00 | 0.00 | 49 | 1012.4 |
| 20260506040219 | 63 | 222 | 3.0 | 7.0 | 0.00 | 0.00 | 0.00 | 48 | 1012.4 |
| 20260506034231 | 62 | 215 | 4.0 | 6.0 | 0.00 | 0.00 | 0.00 | 48 | 1012.4 |
| 20260506033231 | 62 | 215 | 1.0 | 3.0 | 0.00 | 0.00 | 0.00 | 46 | 1012.4 |
| 20260506032248 | 62 | 261 | 1.0 | 4.0 | 0.00 | 0.00 | 0.00 | 47 | 1012.4 |
| 20260506031229 | 62 | 207 | 6.0 | 9.0 | 0.00 | 0.00 | 0.00 | 45 | 1012.4 |
| 20260506030328 | 62 | 229 | 2.0 | 7.0 | 0.00 | 0.00 | 0.00 | 46 | 1012.5 |
| 20260506025331 | 63 | 218 | 1.0 | 4.0 | 0.00 | 0.00 | 0.00 | 45 | 1012.4 |
| 20260506024328 | 63 | 211 | 5.0 | 11.0 | 0.00 | 0.00 | 0.00 | 45 | 1012.3 |
| 20260506023329 | 64 | 218 | 3.0 | 7.0 | 0.00 | 0.00 | 0.00 | 44 | 1012.4 |
| 20260506022329 | 64 | 218 | 2.0 | 5.0 | 0.00 | 0.00 | 0.00 | 43 | 1012.5 |
| 20260506021341 | 64 | 230 | 3.0 | 6.0 | 0.00 | 0.00 | 0.00 | 43 | 1012.4 |
| 20260506020429 | 64 | 241 | 2.0 | 5.0 | 0.00 | 0.00 | 0.00 | 42 | 1012.4 |
| 20260506015529 | 65 | 244 | 1.0 | 2.0 | 0.00 | 0.00 | 0.00 | 42 | 1012.2 |
| 20260506014531 | 65 | 216 | 5.0 | 10.0 | 0.00 | 0.00 | 0.00 | 42 | 1012.1 |
| 20260506013629 | 65 | 219 | 3.0 | 8.0 | 0.00 | 0.00 | 0.00 | 42 | 1012.1 |
| 20260506012630 | 66 | 210 | 3.0 | 5.0 | 0.00 | 0.00 | 0.00 | 42 | 1011.8 |
| 20260506011630 | 66 | 219 | 4.0 | 11.0 | 0.00 | 0.00 | 0.00 | 41 | 1011.7 |